Regional Weather Roundup
Issued by NWS Goodland, KS

Home | Current Version | Previous Version | Graphics & Text | Print | Product List | Glossary On
Versions: 1 2 3 4 5 6 7 8 9 10 11 12 13 14 15 16 17 18 19 20 21 22 23 24 25 26 27 28 29 30 31 32 33 34 35 36 37 38 39 40 41 42 43 44 45 46 47 48 49 50
000
ASUS43 KGLD 230608
RWRGLD

GOODLAND FORECAST AREA HOURLY WEATHER ROUNDUP
NATIONAL WEATHER SERVICE GOODLAND KS
1100 PM MST WED FEB 22 2017

...OFFICIAL OBSERVATIONS...

CITY           SKY/WX    TMP DP  RH WIND       PRES   REMARKS
GOODLAND KS    CLOUDY    41  22  46 E13       29.67F
HILL CITY KS   CLOUDY    48  30  49 E13       29.71S
IMPERIAL NEB   CLEAR     38  23  55 NE10      29.74R
MCCOOK NEB     CLEAR     40  28  62 NE12      29.72S
AKRON CO       CLEAR     30  15  53 N12       29.71F
BURLINGTON CO  CLOUDY    41  21  44 E9        29.67F
LIMON CO       CLEAR     30  17  58 NW10      29.68F
$$

...UNOFFICIAL OBSERVATIONS...

CITY           SKY/WX    TMP DP  RH WIND       PRES   REMARKS
LENORA KS        N/A     44  32  63 E8          N/A
NORTON KS      CLEAR     37  25  60 NE9       29.70F
SHARON SPRINGS   N/A     43  26  50 E6          N/A
TRIBUNE KS     CLOUDY    45  27  49 NE5       29.68F
TRENTON NEB      N/A     42  32  68 E7          N/A
KIT CARSON CO    N/A     46  25  43 MISG        N/A
YUMA CO        FAIR      30  18  59 N7        29.70F
$$




USA.gov is the U.S. government's official web portal to all federal, state and local government web resources and services.